Location: Trois-Rivi�res
(46.3500°N, 72.5500°W)
Time: 01:21:58
(UTC-04:00)

ISS - Pass Details

Date: 14 October 2017
Orbit: 401 x 408 km, 51.6° (Epoch: 20 October)

Event Time Altitude Azimuth Distance (km) Brightness Sun altitude
Rises 19:25:41 0° 291° (WNW) 2,326 1.5 -14.7°
Reaches altitude 10° 19:28:00 10° 277° (W) 1,464 0.4 -15.1°
Maximum altitude 19:30:43 24° 221° (SW) 882 -1.7 -15.6°
Enters shadow 19:33:26 10° 165° (SSE) 1,457 -1.2 -16.0°
